Weather History for Lanai City, HI

Change the Weather History Date:

Sunday, January 15, 2012

  Actual Average Record
Temperature  
Mean Temperature 70 °F -  
Max Temperature 73 °F 76 °F 81 °F (1997)
Min Temperature 66 °F 59 °F 53 °F (1955)
Cooling Degree Days 4    
Growing Degree Days 20 (Base 50)    
Moisture  
Dew Point 67 °F    
Average Humidity 89    
Maximum Humidity 100    
Minimum Humidity 78    
Precipitation  
Precipitation 0.00 in - - ()
Sea Level Pressure  
Sea Level Pressure 29.99 in    
Wind  
Wind Speed 13 mph (South)    
Max Wind Speed 18 mph    
Max Gust Speed -    
Visibility 8 miles    
Events Rain    
Averages and records for this station are not official NWS values.
T = Trace of Precipitation, MM = Missing Value Source: NWS Daily Summary

Daily Weather History Graph

Daily Weather History Graph

Search for Another Location

Airport:

Trip Planner

Search our weather history database for the weather conditions in past years. The results will help you decide how hot, cold, wet, or windy it might be!

Date:

Astronomy

Jan. 15, 2012 Rise Set
Actual Time 7:07 AM HST 6:07 PM HST
Civil Twilight 6:43 AM HST 6:31 PM HST
Nautical Twilight 6:16 AM HST 6:58 PM HST
Astronomical Twilight 5:49 AM HST 7:25 PM HST
Moon No Moon Rise 11:34 AM HST (1/15)
Length of Visible Light 11h 47m
Length of Day
11h 00m
Waning Gibbous, 55% of the Moon is Illuminated
Jan 15
Waning Gibbous
Jan 15
Last Quarter
Jan 22
New
Jan 30
First Quarter
Feb 7
Full

Hourly Weather History & Observations

Time (HST) Temp. Dew Point Humidity Pressure Visibility Wind Dir Wind Speed Gust Speed Precip Events Conditions
12:07 AM 66.2 °F 64.4 °F 94% 29.96 in 10.0 mi SE 10.4 mph - N/A   Mostly Cloudy
12:56 AM 68.0 °F 63.9 °F 87% 29.90 in 10.0 mi SE 10.4 mph - N/A   Mostly Cloudy
1:56 AM 66.2 °F 64.4 °F 94% 29.93 in 10.0 mi SE 11.5 mph - N/A   Mostly Cloudy
2:56 AM 68.9 °F 64.9 °F 87% 29.87 in 10.0 mi SE 12.7 mph - N/A   Overcast
3:29 AM 69.8 °F 66.2 °F 88% 29.92 in 8.0 mi SE 10.4 mph - N/A   Overcast
3:56 AM 68.9 °F 65.8 °F 90% 29.86 in 10.0 mi SSE 13.8 mph - N/A   Overcast
4:56 AM 69.8 °F 66.2 °F 88% 29.95 in 10.0 mi SSE 11.5 mph - N/A   Mostly Cloudy
5:56 AM 68.9 °F 66.9 °F 93% 29.92 in 10.0 mi South 11.5 mph - 0.00 in   Overcast
6:45 AM 69.8 °F 66.2 °F 88% 29.98 in 10.0 mi South 9.2 mph - N/A   Overcast
6:56 AM 68.9 °F 66.9 °F 93% 29.93 in 8.0 mi SSE 10.4 mph - 0.00 in Rain Light Rain
7:20 AM 69.8 °F 66.2 °F 88% 29.99 in 9.0 mi SSE 15.0 mph - 0.00 in   Overcast
7:27 AM 69.8 °F 66.2 °F 88% 29.99 in 10.0 mi South 13.8 mph - 0.00 in   Mostly Cloudy
7:56 AM 69.8 °F 66.2 °F 88% 30.00 in 10.0 mi South 15.0 mph - N/A   Mostly Cloudy
8:14 AM 69.8 °F 66.2 °F 88% 30.00 in 10.0 mi South 13.8 mph - N/A   Overcast
8:56 AM 70.0 °F 66.9 °F 90% 29.97 in 10.0 mi South 17.3 mph - N/A   Mostly Cloudy
9:10 AM 69.8 °F 68.0 °F 94% 30.02 in 10.0 mi SSE 16.1 mph - N/A   Mostly Cloudy
9:19 AM 71.6 °F 68.0 °F 88% 30.02 in 10.0 mi South 16.1 mph - N/A   Mostly Cloudy
9:56 AM 70.9 °F 66.9 °F 87% 29.98 in 10.0 mi SSE 13.8 mph - N/A   Mostly Cloudy
10:11 AM 71.6 °F 66.2 °F 83% 30.03 in 10.0 mi SSE 16.1 mph - N/A   Mostly Cloudy
10:56 AM 73.4 °F 66.2 °F 78% 30.03 in 10.0 mi South 15.0 mph - N/A   Overcast
11:56 AM 72.9 °F 66.9 °F 82% 29.96 in 10.0 mi South 16.1 mph - N/A   Overcast
12:56 PM 72.9 °F 68.0 °F 85% 29.94 in 10.0 mi South 17.3 mph - 0.00 in   Overcast
1:56 PM 73.9 °F 66.9 °F 79% 29.92 in 10.0 mi South 18.4 mph - N/A   Overcast
2:56 PM 73.9 °F 66.9 °F 79% 29.91 in 10.0 mi South 16.1 mph - N/A   Mostly Cloudy
3:56 PM 72.9 °F 66.9 °F 82% 29.93 in 10.0 mi South 15.0 mph - N/A   Overcast
4:56 PM 72.0 °F 66.9 °F 84% 29.94 in 10.0 mi South 16.1 mph - N/A   Overcast
5:22 PM 71.6 °F 66.2 °F 83% 30.00 in 10.0 mi South 15.0 mph - N/A   Overcast
5:56 PM 70.9 °F 66.9 °F 87% 29.97 in 10.0 mi South 11.5 mph - N/A   Overcast
6:43 PM 71.6 °F 68.0 °F 88% 30.03 in 9.0 mi South 11.5 mph - N/A   Overcast
6:56 PM 70.9 °F 68.0 °F 91% 29.99 in 9.0 mi South 13.8 mph - N/A   Overcast
7:56 PM 70.9 °F 68.0 °F 91% 30.00 in 7.0 mi South 12.7 mph - N/A   Overcast
8:56 PM 70.9 °F 68.9 °F 93% 30.00 in 6.0 mi South 10.4 mph - N/A   Overcast
9:32 PM 71.6 °F 69.8 °F 94% 30.07 in 5.0 mi South 11.5 mph - N/A   Overcast
9:56 PM 70.9 °F 68.9 °F 93% 30.01 in 6.0 mi SSE 11.5 mph - N/A   Overcast
10:22 PM 71.6 °F 69.8 °F 94% 30.07 in 2.0 mi South 16.1 mph - N/A   Overcast
10:34 PM 71.6 °F 69.8 °F 94% 30.07 in 1.2 mi South 13.8 mph - N/A   Overcast
10:49 PM 71.6 °F 69.8 °F 94% 30.08 in 1.5 mi South 15.0 mph - N/A   Overcast
10:56 PM 70.9 °F 68.9 °F 93% 30.03 in 0.8 mi South 13.8 mph - N/A   Overcast
11:04 PM 69.8 °F 69.8 °F 100% 30.08 in 1.2 mi South 11.5 mph - N/A   Overcast
11:08 PM 71.6 °F 69.8 °F 94% 30.08 in 2.0 mi South 15.0 mph - N/A   Overcast
11:25 PM 69.8 °F 69.8 °F 100% 30.08 in 4.0 mi South 16.1 mph - N/A   Overcast
11:33 PM 71.6 °F 69.8 °F 94% 30.08 in 1.8 mi South 13.8 mph - N/A   Overcast
11:56 PM 70.9 °F 68.9 °F 93% 30.02 in 1.0 mi South 11.5 mph - N/A   Overcast